Weather Roundup
Issued by NWS

Home | Current Version | Previous Version | Graphics & Text | Print | Product List | Glossary Off
Versions: 1 2 3 4 5 6 7 8 9 10 11 12 13 14 15 16 17 18 19 20 21 22 23 24 25 26 27 28 29 30 31 32 33 34 35 36 37 38 39 40 41 42 43 44 45 46 47 48 49 50

000
NZUS93 KARX 300410
HRRWXR

CURRENT HOURLY OBSERVATIONS ACROSS
MUCH OF THE UPPER MISSISSIPPI VALLEY
NATIONAL WEATHER SERVICE LA CROSSE WI
1100 PM CDT SUN MAR 29 2015


...SOUTHEAST MINNESOTA...


CITY           SKY/WX    TMP DP  RH WIND       PRES   REMARKS
ROCHESTER      CLEAR     38  29  70 W13       29.97R WCI  30
ROCHESTER/MAYO FAIR      43  29  59 W15       29.96R
WINONA         CLEAR     43  28  56 NW7       29.94S
AUSTIN         FAIR      41  30  65 W8        29.99R
ALBERT LEA     CLEAR     39  30  70 W6        30.01R WCI  35
DODGE CENTER   CLEAR     41  30  65 W10       29.97R
PRESTON        CLEAR     37  29  71 W12       29.97R WCI  30
OWATONNA       CLEAR     39  30  70 W7        29.99R WCI  34
FARIBAULT      CLEAR     41  30  65 W7        29.99R
$$

...ELSEWHERE IN MINNESOTA...


CITY           SKY/WX    TMP DP  RH WIND       PRES   REMARKS
MINNEAPOLIS    CLEAR     44  26  49 W8        29.96R
INTNL FALLS    CLEAR     35  25  66 W8        29.79S WCI  29
DULUTH         PTCLDY    35  24  64 W8        29.82S WCI  29
RED WING       CLEAR     39  27  60 W3        29.94S
REDWOOD FALLS  CLEAR     43  25  49 W8        29.99F
MANKATO        CLEAR     43  27  52 W8        30.00S
WORTHINGTON    CLEAR     36  19  51 SW7       30.06S WCI  30
FAIRMONT       CLEAR     41  21  45 W10       30.02F
$$

...SOUTHWEST WISCONSIN...


CITY           SKY/WX    TMP DP  RH WIND       PRES   REMARKS
LA CROSSE      CLEAR     45  28  51 W9        29.93R
PRAIRIE DU CHI CLEAR     42  28  57 W9        29.97R
BOSCOBEL       CLEAR     45  28  51 W6        29.95R
LONE ROCK      CLEAR     45  29  53 W13       29.92R
PLATTEVILLE    FAIR      40  30  67 W8        29.95R WCI  35
FORT MC COY    CLEAR     44  26  49 W8        29.92R
CAMP DOUGLAS   CLEAR     31  31  99 W8        29.89R WCI  24
VIROQUA        FAIR      40  30  68 W10       29.92R WCI  33
WIS DELLS      CLEAR     37  33  84 W6        29.89R WCI  33
$$

...ELSEWHERE IN WISCONSIN...


CITY           SKY/WX    TMP DP  RH WIND       PRES   REMARKS
MILWAUKEE      PTCLDY    42  29  59 W8        29.88R
MADISON        PTCLDY    32  30  92 CALM      29.90R
GREEN BAY      CLEAR     39  31  72 W13       29.80R WCI  31
EAU CLAIRE     CLEAR     40  25  55 W7        29.90R
BLACK RVR FLS  FAIR      44  25  46 NW8       29.90R
MEDFORD        CLOUDY    35  30  80 W6        29.84R WCI  30
WAUSAU         CLOUDY    38  31  76 NW7       29.82R WCI  33
WIS RAPIDS     MOCLDY    35  29  78 W5        29.88R WCI  31
MARSHFIELD     MOCLDY    36  29  75 W6        29.85R WCI  31
RICE LAKE      CLEAR     40  26  56 W7        29.90R
$$

...NORTHEAST IOWA...


CITY           SKY/WX    TMP DP  RH WIND       PRES   REMARKS
DECORAH        CLEAR     41  30  65 VRB5G12   29.97R
MASON CITY     CLEAR     37  27  67 W10       30.04R WCI  30
CHARLES CITY   CLEAR     39  32  75 W9        30.01S WCI  33
OELWEIN        CLEAR     37  32  81 NW10      30.01R WCI  30
$$

...ELSEWHERE IN IOWA...


CITY           SKY/WX    TMP DP  RH WIND       PRES   REMARKS
DES MOINES     CLEAR     48  22  35 NW8       30.09R
IOWA CITY      CLEAR     45  29  53 NW7       30.05R
FORT DODGE     CLEAR     41  25  52 CALM      30.08S
$$

...NORTHERN ILLINOIS...


CITY           SKY/WX    TMP DP  RH WIND       PRES   REMARKS
CHICAGO-OHARE  MOCLDY    41  33  73 W6        29.91R
CHICAGO-MIDWAY MOCLDY    44  34  67 W5        29.93R
MOLINE         CLEAR     43  28  55 W8        30.01R
ROCKFORD       CLEAR     42  31  64 W13       29.93R
PEORIA         CLEAR     46  35  65 W7        30.02R
$$

NOTE: "FAIR" INDICATES FEW OR NO CLOUDS BELOW 12,000 FEET WITH NO
SIGNIFICANT WEATHER AND/OR OBSTRUCTIONS TO VISIBILITY. WIND
SPEEDS ARE IN MILES-PER-HOUR.



USA.gov is the U.S. government's official web portal to all federal, state and local government web resources and services.